Wind_Speed
21 20 17 13 15 16 16 14 13 11 11 7 8 8 8 6 7 5 5 4 3 4
21 19 18 15 16 15 13 13 13 15 15 12 10 10 9 7 7 6 6 4 3 5
23 21 19 19 18 15 13 13 15 18 18 16 13 12 11 9 7 8 7 4 3 3
24 21 19 18 17 17 15 13 13 15 18 16 13 12 11 11 9 9 9 8 6 6
24 22 22 19 16 14 16 14 13 15 17 16 14 13 13 13 12 10 10 9 8 7
25 23 23 20 18 15 16 16 14 19 19 17 17 17 14 14 14 12 12 10 9 9
26 25 24 21 21 18 16 16 14 15 15 17 15 17 15 16 15 13 13 13 12 10
26 24 23 22 19 18 18 17 15 14 15 16 17 17 18 18 17 17 15 12 10 9
25 22 18 16 15 14 20 21 20 18 16 14 15 17 18 16 16 16 14 13 8 5
17 16 10 9 9 7 10 14 21 24 20 18 16 15 12 15 12 13 13 12 9 7
12 11 12 12 10 8 10 14 18 20 17 14 12 8 6 6 11 11 10 9 8 7
17 12 12 8 5 8 11 16 19 20 17 14 11 9 7 2 10 11 9 8 8 7
14 14 8 7 7 4 10 15 17 16 13 11 12 14 11 4 10 7 9 9 7 7
21 18 14 12 11 12 13 14 12 12 12 10 11 15 13 12 12 13 14 12 9 9
Wind_Direction
209 208 218 228 224 213 222 228 226 230 226 225 206 207 198 188 199 203 162 127 107 109
201 206 215 226 213 219 225 226 227 228 232 228 220 218 221 221 222 218 204 194 194 187
211 214 220 214 214 225 232 236 232 229 223 223 230 227 222 228 239 230 226 220 230 203
215 215 210 211 219 226 230 232 240 223 224 226 233 228 236 233 234 246 242 240 246 228
218 215 209 216 221 230 219 221 229 216 220 222 229 228 236 233 240 244 250 239 233 231
215 221 225 224 224 225 221 226 236 234 226 229 231 228 226 235 238 244 241 246 254 250
216 221 226 231 229 230 230 231 234 226 226 224 227 227 231 229 227 235 237 246 249 249
216 222 228 230 229 234 236 239 241 243 237 231 231 226 225 232 235 226 225 225 223 231
214 218 216 221 225 235 243 240 237 234 228 230 230 235 250 243 229 217 219 206 195 212
190 190 182 224 231 252 271 248 236 229 223 221 223 242 256 237 212 197 205 206 203 198
199 222 229 238 241 267 275 252 231 218 208 204 218 225 240 209 185 192 193 194 191 188
232 228 216 224 264 250 249 224 210 197 191 180 161 144 108 85 172 174 161 154 154 156
201 177 165 166 175 187 220 210 182 170 178 202 211 227 235 206 148 143 147 139 143 140
165 159 162 155 143 143 150 144 137 125 121 118 146 168 177 202 210 199 158 153 148 132
Height
842 845 847 850 851 852 854 855 857 859 861 862 862 863 865 865 863 864 864 864 864 864
839 842 844 847 849 851 852 853 855 856 858 860 862 863 863 864 864 864 864 863 864 864
837 839 842 845 846 848 850 851 852 854 856 858 859 861 862 863 862 862 863 863 863 864
835 838 839 841 844 846 847 848 849 850 852 854 855 857 859 860 861 862 862 863 863 863
833 836 838 839 840 843 844 846 847 848 850 851 853 854 856 857 858 859 860 860 860 861
829 833 836 838 840 841 843 844 845 846 847 849 850 851 853 854 855 856 857 858 858 858
826 829 833 836 838 839 841 843 843 844 845 847 847 849 851 852 852 854 855 855 855 855
821 826 830 832 835 837 838 840 842 842 843 844 845 846 847 849 849 850 851 852 853 853
818 823 827 829 831 832 834 835 838 840 841 842 842 842 843 845 845 847 849 849 851 852
815 818 823 827 828 829 830 832 833 835 836 837 839 840 840 840 843 845 847 848 850 851
812 816 819 822 823 822 824 827 829 830 832 833 835 836 838 839 841 844 846 847 849 850
809 813 817 817 818 821 820 825 826 828 829 832 834 833 834 838 840 844 846 847 849 851
809 813 815 818 820 820 823 825 825 825 828 830 831 830 834 838 840 844 847 850 853 853
808 811 814 818 820 823 826 826 828 828 828 828 830 831 831 836 838 843 848 852 855 853